• In Russia
  • List of Countries
  • For 7 days
  • Water Temperature
  • Satellite Maps
  • Weather Map
  • Weather Widgets
  • user-avatar
    Login

    Hourly Weather Pepel

    Today, 19 June, Tuesday

    Time Temperature Precipitation Wind Pressure Humidity
    00:00 +26°C° 0.3 mm 2 mps 762 mmHg 94%
    01:00 +26°C° 0.3 mm 2 mps 762 mmHg 95%
    02:00 +26°C° 0.3 mm 1 mps 761 mmHg 95%
    03:00 +26°C° 0 mm 1 mps 761 mmHg 95%
    04:00 +26°C° 0 mm 1 mps 761 mmHg 95%
    05:00 +26°C° 0 mm 2 mps 761 mmHg 95%
    06:00 +27°C° 0 mm 2 mps 761 mmHg 91%
    07:00 +28°C° 0 mm 2 mps 761 mmHg 87%
    08:00 +29°C° 0 mm 2 mps 761 mmHg 84%
    09:00 +29°C° 0.7 mm 2 mps 761 mmHg 83%
    10:00 +29°C° 0.7 mm 2 mps 762 mmHg 82%
    11:00 +30°C° 0.7 mm 2 mps 762 mmHg 81%
    12:00 +30°C° 1.2 mm 2 mps 761 mmHg 80%
    13:00 +30°C° 1.2 mm 2 mps 761 mmHg 79%
    14:00 +30°C° 1.2 mm 2 mps 760 mmHg 78%
    15:00 +30°C° 0.6 mm 2 mps 760 mmHg 81%
    16:00 +29°C° 0.6 mm 2 mps 760 mmHg 84%
    17:00 +28°C° 0.6 mm 3 mps 760 mmHg 87%
    18:00 +28°C° 1.5 mm 3 mps 760 mmHg 89%
    19:00 +27°C° 1.5 mm 2 mps 760 mmHg 91%
    20:00 +26°C° 1.5 mm 2 mps 761 mmHg 93%
    21:00 +26°C° 0 mm 2 mps 761 mmHg 93%
    22:00 +26°C° 0 mm 2 mps 761 mmHg 93%
    23:00 +26°C° 0 mm 2 mps 761 mmHg 93%

    Tomorrow, 20 June, Wednesday

    Time Temperature Precipitation Wind Pressure Humidity
    00:00 +26°C° 0 mm 2 mps 761 mmHg 94%
    01:00 +26°C° 0 mm 2 mps 760 mmHg 94%
    02:00 +26°C° 0 mm 2 mps 760 mmHg 94%
    03:00 +26°C° 0.2 mm 2 mps 760 mmHg 95%
    04:00 +26°C° 0.2 mm 1 mps 760 mmHg 95%
    05:00 +26°C° 0.2 mm 1 mps 760 mmHg 95%
    06:00 +27°C° 0.1 mm 1 mps 761 mmHg 91%
    07:00 +28°C° 0.1 mm 1 mps 761 mmHg 86%
    08:00 +29°C° 0.1 mm 1 mps 761 mmHg 82%
    09:00 +30°C° 0.1 mm 2 mps 761 mmHg 77%
    10:00 +31°C° 0.1 mm 2 mps 761 mmHg 73%
    11:00 +33°C° 0.1 mm 3 mps 761 mmHg 68%
    12:00 +33°C° 0.3 mm 3 mps 761 mmHg 68%
    13:00 +33°C° 0.3 mm 3 mps 760 mmHg 67%
    14:00 +33°C° 0.3 mm 4 mps 760 mmHg 67%
    15:00 +32°C° 0.2 mm 4 mps 760 mmHg 71%
    16:00 +30°C° 0.2 mm 4 mps 760 mmHg 75%
    17:00 +29°C° 0.2 mm 4 mps 760 mmHg 79%
    18:00 +29°C° 0 mm 3 mps 760 mmHg 82%
    19:00 +28°C° 0 mm 3 mps 761 mmHg 86%
    20:00 +27°C° 0 mm 3 mps 762 mmHg 89%
    21:00 +27°C° 0 mm 3 mps 762 mmHg 90%
    22:00 +27°C° 0 mm 3 mps 762 mmHg 90%
    23:00 +27°C° 0 mm 3 mps 762 mmHg 91%

    Day after tomorrow, 21 June, Thursday

    Time Temperature Precipitation Wind Pressure Humidity
    00:00 +27°C° 0 mm 3 mps 762 mmHg 91%
    01:00 +27°C° 0 mm 3 mps 761 mmHg 92%
    02:00 +26°C° 0 mm 3 mps 760 mmHg 92%
    03:00 +26°C° 0 mm 3 mps 760 mmHg 92%
    04:00 +26°C° 0 mm 3 mps 760 mmHg 92%
    05:00 +26°C° 0 mm 3 mps 760 mmHg 92%
    06:00 +27°C° 0.1 mm 3 mps 760 mmHg 89%
    07:00 +28°C° 0.1 mm 3 mps 761 mmHg 85%
    08:00 +29°C° 0.1 mm 3 mps 761 mmHg 81%
    09:00 +29°C° 0.1 mm 3 mps 761 mmHg 78%
    10:00 +30°C° 0.1 mm 3 mps 761 mmHg 75%
    11:00 +30°C° 0.1 mm 4 mps 761 mmHg 72%
    12:00 +30°C° 0.2 mm 3 mps 760 mmHg 73%
    13:00 +30°C° 0.2 mm 3 mps 760 mmHg 74%
    14:00 +30°C° 0.2 mm 3 mps 760 mmHg 74%
    15:00 +30°C° 0.2 mm 3 mps 759 mmHg 75%
    16:00 +30°C° 0.2 mm 3 mps 759 mmHg 76%
    17:00 +30°C° 0.2 mm 3 mps 759 mmHg 77%
    18:00 +29°C° 0 mm 3 mps 760 mmHg 81%
    19:00 +28°C° 0 mm 3 mps 760 mmHg 86%
    20:00 +27°C° 0 mm 3 mps 761 mmHg 91%
    21:00 +27°C° 0.1 mm 3 mps 761 mmHg 91%
    22:00 +27°C° 0.1 mm 3 mps 761 mmHg 92%
    23:00 +27°C° 0.1 mm 3 mps 761 mmHg 93%

    22 June, Friday

    Time Temperature Precipitation Wind Pressure Humidity
    00:00 +27°C° 0.1 mm 3 mps 761 mmHg 93%
    01:00 +27°C° 0.1 mm 3 mps 760 mmHg 94%
    02:00 +26°C° 0.1 mm 3 mps 759 mmHg 94%
    03:00 +26°C° 0.2 mm 3 mps 759 mmHg 94%
    04:00 +26°C° 0.2 mm 3 mps 759 mmHg 94%
    05:00 +27°C° 0.2 mm 2 mps 759 mmHg 94%
    06:00 +27°C° 0.2 mm 3 mps 760 mmHg 92%
    07:00 +28°C° 0.2 mm 3 mps 760 mmHg 90%
    08:00 +28°C° 0.2 mm 3 mps 761 mmHg 88%
    09:00 +29°C° 0.3 mm 3 mps 761 mmHg 86%
    10:00 +29°C° 0.3 mm 3 mps 760 mmHg 85%
    11:00 +29°C° 0.3 mm 3 mps 760 mmHg 83%
    12:00 +30°C° 0.3 mm 3 mps 760 mmHg 79%
    13:00 +32°C° 0.3 mm 4 mps 759 mmHg 76%
    14:00 +32°C° 0.3 mm 4 mps 758 mmHg 72%
    15:00 +30°C° 0.8 mm 4 mps 759 mmHg 77%
    16:00 +29°C° 0.8 mm 3 mps 759 mmHg 83%
    17:00 +28°C° 0.8 mm 3 mps 759 mmHg 88%
    18:00 +28°C° 0.1 mm 2 mps 759 mmHg 90%
    19:00 +27°C° 0.1 mm 2 mps 760 mmHg 91%
    20:00 +27°C° 0.1 mm 2 mps 760 mmHg 93%
    21:00 +27°C° 0.3 mm 2 mps 761 mmHg 93%
    22:00 +27°C° 0.3 mm 2 mps 761 mmHg 94%
    23:00 +26°C° 0.3 mm 2 mps 761 mmHg 94%

    23 June, Saturday

    Time Temperature Precipitation Wind Pressure Humidity
    00:00 +26°C° 0.5 mm 2 mps 760 mmHg 94%
    01:00 +26°C° 0.5 mm 2 mps 759 mmHg 95%
    02:00 +26°C° 0.5 mm 2 mps 759 mmHg 95%
    03:00 +26°C° 0.1 mm 2 mps 759 mmHg 95%
    04:00 +26°C° 0.1 mm 2 mps 759 mmHg 94%
    05:00 +26°C° 0.1 mm 2 mps 759 mmHg 94%
    06:00 +27°C° 0.2 mm 2 mps 759 mmHg 90%
    07:00 +28°C° 0.2 mm 2 mps 760 mmHg 86%
    08:00 +29°C° 0.2 mm 2 mps 760 mmHg 82%
    09:00 +30°C° 0.7 mm 2 mps 760 mmHg 80%
    10:00 +30°C° 0.7 mm 2 mps 760 mmHg 78%
    11:00 +31°C° 0.7 mm 2 mps 760 mmHg 75%
    12:00 +31°C° 1.4 mm 2 mps 759 mmHg 76%
    13:00 +30°C° 1.4 mm 3 mps 759 mmHg 77%
    14:00 +30°C° 1.4 mm 3 mps 758 mmHg 78%
    15:00 +29°C° 1.1 mm 3 mps 758 mmHg 81%
    16:00 +29°C° 1.1 mm 3 mps 758 mmHg 84%
    17:00 +28°C° 1.1 mm 3 mps 758 mmHg 87%
    18:00 +27°C° 1.9 mm 3 mps 759 mmHg 89%
    19:00 +27°C° 1.9 mm 2 mps 759 mmHg 91%
    20:00 +26°C° 1.9 mm 2 mps 760 mmHg 93%
    21:00 +26°C° 0.2 mm 2 mps 760 mmHg 93%
    22:00 +26°C° 0.2 mm 2 mps 760 mmHg 93%
    23:00 +26°C° 0.2 mm 2 mps 760 mmHg 93%

    24 June, Sunday

    Time Temperature Precipitation Wind Pressure Humidity
    00:00 +26°C° 0.9 mm 2 mps 759 mmHg 94%
    01:00 +26°C° 0.9 mm 2 mps 759 mmHg 94%
    02:00 +26°C° 0.9 mm 2 mps 758 mmHg 94%
    03:00 +26°C° 1.4 mm 2 mps 758 mmHg 93%
    04:00 +26°C° 1.4 mm 2 mps 759 mmHg 93%
    05:00 +26°C° 1.4 mm 2 mps 759 mmHg 93%
    06:00 +26°C° 1.9 mm 2 mps 759 mmHg 92%
    07:00 +26°C° 1.9 mm 1 mps 760 mmHg 92%
    08:00 +26°C° 1.9 mm 1 mps 760 mmHg 92%
    09:00 +27°C° 0.7 mm 1 mps 760 mmHg 88%
    10:00 +28°C° 0.7 mm 1 mps 760 mmHg 85%
    11:00 +29°C° 0.7 mm 1 mps 760 mmHg 81%
    12:00 +29°C° 0.5 mm 1 mps 759 mmHg 79%
    13:00 +30°C° 0.5 mm 2 mps 759 mmHg 77%
    14:00 +30°C° 0.5 mm 2 mps 758 mmHg 75%
    15:00 +30°C° 0.6 mm 2 mps 758 mmHg 79%
    16:00 +29°C° 0.6 mm 2 mps 758 mmHg 82%
    17:00 +28°C° 0.6 mm 2 mps 758 mmHg 86%
    18:00 +27°C° 0.3 mm 2 mps 759 mmHg 88%
    19:00 +27°C° 0.3 mm 2 mps 759 mmHg 90%
    20:00 +26°C° 0.3 mm 1 mps 760 mmHg 91%
    21:00 +26°C° 0.4 mm 1 mps 760 mmHg 92%
    22:00 +26°C° 0.4 mm 1 mps 760 mmHg 93%
    23:00 +26°C° 0.4 mm 1 mps 760 mmHg 94%
    Show more